Dover, DE

4:23 AM EST on February 07, 2016 (GMT -0500)
Dover Air Force Base

Weather History for KDOV - November, 2011

Change the Weather History Date:

Thursday, November 10, 2011

  Actual Average Record
Temperature  
Mean Temperature 52 °F -  
Max Temperature 59 °F 60 °F 75 °F (1986)
Min Temperature 44 °F 41 °F 26 °F (1971)
Degree Days  
Heating Degree Days 14    
Growing Degree Days 2 (Base 50)    
Moisture  
Dew Point 52 °F    
Average Humidity 95    
Maximum Humidity 100    
Minimum Humidity 66    
Precipitation  
Precipitation 0.01 in - - ()
Sea Level Pressure  
Sea Level Pressure 29.85 in    
Wind  
Wind Speed 4 mph (NW)    
Max Wind Speed 22 mph    
Max Gust Speed 33 mph    
Visibility 4 miles    
Events Fog , Rain    
Averages and records for this station are not official NWS values.
T = Trace of Precipitation, MM = Missing Value Source: NWS Daily Summary

Daily Weather History Graph

Daily Weather History Graph

Search for Another Location

Airport or City:

Trip Planner

Search our weather history database for the weather conditions in past years. The results will help you decide how hot, cold, wet, or windy it might be!

Date:

Astronomy

Nov. 10, 2011 Rise Set
Actual Time 6:39 AM EST 4:51 PM EST
Civil Twilight 6:10 AM EST 5:20 PM EST
Nautical Twilight 5:38 AM EST 5:52 PM EST
Astronomical Twilight 5:07 AM EST 6:23 PM EST
Moon 4:38 PM EST (11/10) 6:28 AM EST (11/10)
Length of Visible Light 11h 09m
Length of Day
10h 12m
Full, 100% of the Moon is Illuminated
Nov 10
Full
Nov 10
Full
Nov 18
Last Quarter
Nov 25
New
Dec 2
First Quarter

Hourly Weather History & Observations

Time (EST) Temp. Windchill Dew Point Humidity Pressure Visibility Wind Dir Wind Speed Gust Speed Precip Events Conditions
12:55 AM 56.1 °F - 55.8 °F 99% 29.96 in 0.2 mi Calm Calm - N/A Fog Fog
1:25 AM 55.4 °F - 55.4 °F 100% 29.97 in 0.5 mi WSW 5.8 mph - N/A Fog Fog
1:30 AM 55.4 °F - 55.4 °F 100% 29.96 in 0.5 mi Calm Calm - N/A Fog Fog
1:37 AM 55.4 °F - 55.4 °F 100% 29.96 in 0.2 mi Calm Calm - N/A Fog Fog
1:55 AM 55.8 °F - 55.4 °F 99% 29.96 in 0.2 mi Calm Calm - N/A Fog Fog
2:05 AM 55.4 °F - 55.4 °F 100% 29.96 in 0.2 mi Calm Calm - N/A Fog Fog
2:17 AM 55.4 °F - 55.4 °F 100% 29.96 in 0.2 mi Calm Calm - N/A Fog Fog
2:55 AM 55.4 °F - 55.0 °F 99% 29.94 in 0.2 mi Calm Calm - N/A Fog Fog
3:55 AM 54.5 °F - 54.1 °F 99% 29.92 in 0.2 mi Calm Calm - N/A Fog Fog
4:55 AM 53.8 °F - 53.4 °F 99% 29.91 in 0.2 mi North 3.5 mph - N/A Fog Fog
5:55 AM 53.8 °F - 53.4 °F 99% 29.91 in 0.2 mi NW 4.6 mph - N/A Fog Fog
6:11 AM 53.6 °F - 53.6 °F 100% 29.90 in 0.2 mi Calm Calm - N/A Fog Fog
6:12 AM 53.6 °F - 53.6 °F 100% 29.90 in 0.5 mi Calm Calm - N/A Fog Fog
6:24 AM 53.6 °F - 51.8 °F 94% 29.89 in 0.5 mi Calm Calm - N/A Fog Fog
6:25 AM 53.6 °F - 51.8 °F 94% 29.89 in 0.5 mi Calm Calm - N/A Fog Fog
6:28 AM 51.8 °F - 51.8 °F 100% 29.89 in 0.2 mi Calm Calm - N/A Fog Fog
6:40 AM 51.8 °F - 51.8 °F 100% 29.90 in 0.2 mi Calm Calm - N/A Fog Fog
6:47 AM 51.8 °F - 51.8 °F 100% 29.90 in 0.2 mi NNW 3.5 mph - N/A Fog Fog
6:55 AM 52.2 °F - 52.0 °F 99% 29.89 in 0.2 mi North 4.6 mph - N/A Fog Fog
6:56 AM 51.8 °F - 51.8 °F 100% 29.90 in 0.2 mi North 4.6 mph - N/A Fog Fog
7:07 AM 53.6 °F - 51.8 °F 94% 29.89 in 0.2 mi Calm Calm - N/A Fog Fog
7:17 AM 53.6 °F - 53.6 °F 100% 29.90 in 0.2 mi NNW 5.8 mph - N/A Fog Fog
7:26 AM 53.6 °F - 53.6 °F 100% 29.90 in 0.2 mi North 5.8 mph - N/A Fog Fog
7:51 AM 53.6 °F - 53.6 °F 100% 29.90 in 0.2 mi North 5.8 mph - N/A Fog Fog
7:55 AM 54.1 °F - 53.8 °F 99% 29.90 in 0.2 mi NNE 5.8 mph - N/A Fog Fog
8:26 AM 53.6 °F - 53.6 °F 100% 29.89 in 0.2 mi North 4.6 mph - N/A Fog Fog
8:34 AM 55.4 °F - 55.4 °F 100% 29.89 in 0.2 mi North 4.6 mph - N/A Fog Fog
8:55 AM 55.0 °F - 54.9 °F 99% 29.88 in 0.2 mi North 4.6 mph - N/A Fog Fog
9:26 AM 55.4 °F - 55.4 °F 100% 29.88 in 0.2 mi Calm Calm - N/A Fog Fog
9:55 AM 55.8 °F - 55.6 °F 99% 29.87 in 0.2 mi Calm Calm - N/A Fog Fog
10:03 AM 55.4 °F - 55.4 °F 100% 29.87 in 0.2 mi NW 4.6 mph - N/A Fog Fog
10:06 AM 55.4 °F - 55.4 °F 100% 29.87 in 0.2 mi North 3.5 mph - N/A Fog Fog
10:07 AM 55.4 °F - 55.4 °F 100% 29.87 in 0.5 mi North 3.5 mph - N/A Fog Fog
10:16 AM 55.4 °F - 55.4 °F 100% 29.87 in 0.5 mi NW 4.6 mph - N/A Fog Fog
10:17 AM 55.4 °F - 55.4 °F 100% 29.87 in 0.2 mi WNW 5.8 mph - N/A Fog Fog
10:24 AM 55.4 °F - 55.4 °F 100% 29.87 in 0.5 mi WNW 5.8 mph - N/A Fog Fog
10:38 AM 55.4 °F - 55.4 °F 100% 29.85 in 0.5 mi WNW 4.6 mph - N/A Fog Fog
10:48 AM 55.4 °F - 55.4 °F 100% 29.85 in 0.5 mi NW 3.5 mph - N/A Fog Fog
10:55 AM 55.8 °F - 55.6 °F 99% 29.85 in 0.5 mi NW 3.5 mph - N/A Fog Fog
11:02 AM 55.4 °F - 55.4 °F 100% 29.85 in 0.5 mi NW 5.8 mph - N/A Fog Fog
11:03 AM 55.4 °F - 55.4 °F 100% 29.85 in 0.5 mi NW 5.8 mph - N/A Fog Fog
11:04 AM 57.2 °F - 55.4 °F 94% 29.85 in 0.8 mi NW 5.8 mph - N/A   Mist
11:09 AM 57.2 °F - 55.4 °F 94% 29.84 in 1.0 mi NW 4.6 mph - N/A   Mist
11:12 AM 57.2 °F - 57.2 °F 100% 29.84 in 1.2 mi WNW 4.6 mph - N/A   Overcast
11:15 AM 57.2 °F - 57.2 °F 100% 29.83 in 1.5 mi NW 5.8 mph - N/A   Overcast
11:16 AM 57.2 °F - 57.2 °F 100% 29.83 in 1.8 mi NW 5.8 mph - N/A   Overcast
11:17 AM 57.2 °F - 57.2 °F 100% 29.83 in 2.0 mi NW 5.8 mph - N/A   Overcast
11:19 AM 57.2 °F - 57.2 °F 100% 29.83 in 3.0 mi WNW 5.8 mph - N/A   Overcast
11:38 AM 59.0 °F - 59.0 °F 100% 29.82 in 9.0 mi WNW 5.8 mph - N/A   Overcast
11:47 AM 57.2 °F - 57.2 °F 100% 29.82 in 9.0 mi Variable 4.6 mph - N/A   Overcast
11:55 AM 58.5 °F - 58.3 °F 99% 29.81 in 9.0 mi WNW 8.1 mph - N/A   Overcast
11:57 AM 59.0 °F - 59.0 °F 100% 29.81 in 9.0 mi WNW 9.2 mph - N/A   Overcast
12:06 PM 59.0 °F - 59.0 °F 100% 29.80 in 10.0 mi NW 6.9 mph - N/A   Overcast
12:46 PM 57.2 °F - 57.2 °F 100% 29.79 in 5.0 mi WNW 15.0 mph - N/A   Overcast
12:55 PM 56.7 °F - 56.3 °F 99% 29.79 in 6.0 mi WNW 11.5 mph - N/A   Overcast
1:13 PM 57.2 °F - 57.2 °F 100% 29.78 in 9.0 mi NW 12.7 mph - N/A   Overcast
1:37 PM 57.2 °F - 57.2 °F 100% 29.77 in 9.0 mi NW 11.5 mph - N/A   Overcast
1:55 PM 57.2 °F - 57.0 °F 99% 29.75 in 10.0 mi WNW 12.7 mph - N/A   Overcast
2:55 PM 55.2 °F - 49.5 °F 81% 29.76 in 9.0 mi NW 18.4 mph 26.5 mph N/A   Overcast
2:59 PM 55.4 °F - 50.0 °F 82% 29.76 in 10.0 mi NW 18.4 mph 26.5 mph N/A   Overcast
3:55 PM 53.8 °F - 46.6 °F 77% 29.76 in 10.0 mi WNW 18.4 mph 25.3 mph N/A   Overcast
4:55 PM 50.5 °F - 44.4 °F 80% 29.76 in 10.0 mi NW 12.7 mph - N/A   Overcast
5:55 PM 48.9 °F - 40.3 °F 72% 29.78 in 10.0 mi WNW 12.7 mph - N/A   Overcast
6:55 PM 47.5 °F - 39.2 °F 73% 29.78 in 10.0 mi NW 21.9 mph 28.8 mph N/A   Overcast
7:12 PM 46.4 °F 38.7 °F 39.2 °F 76% 29.79 in 10.0 mi WNW 20.7 mph 33.4 mph N/A   Light Drizzle
7:55 PM 44.4 °F 38.2 °F 41.9 °F 91% 29.78 in 10.0 mi NW 12.7 mph - 0.01 in Rain Light Rain
8:55 PM 44.6 °F 38.1 °F 41.2 °F 88% 29.75 in 10.0 mi WNW 13.8 mph - 0.00 in Rain Light Rain
9:03 PM 44.6 °F 39.2 °F 41.0 °F 87% 29.75 in 10.0 mi WNW 10.4 mph - N/A   Overcast
9:16 PM 44.6 °F 38.8 °F 41.0 °F 87% 29.76 in 10.0 mi WNW 11.5 mph - N/A   Light Drizzle
9:50 PM 44.6 °F 39.2 °F 39.2 °F 81% 29.75 in 10.0 mi West 10.4 mph 18.4 mph N/A   Overcast
9:55 PM 44.8 °F 38.7 °F 39.6 °F 82% 29.75 in 10.0 mi West 12.7 mph - 0.00 in   Overcast
9:56 PM 44.6 °F 38.4 °F 39.2 °F 81% 29.75 in 10.0 mi West 12.7 mph - N/A   Light Drizzle
10:07 PM 44.6 °F 39.2 °F 39.2 °F 81% 29.74 in 10.0 mi West 10.4 mph - N/A   Overcast
10:55 PM 45.1 °F 39.5 °F 37.2 °F 74% 29.73 in 10.0 mi West 11.5 mph 19.6 mph 0.00 in   Overcast
11:55 PM 45.5 °F 38.6 °F 34.7 °F 66% 29.73 in 10.0 mi WNW 16.1 mph - N/A   Mostly Cloudy